FW7729 Weather Reports


Display with metric or nautical units.
time (UTC)temp
F
wind
direction
speed
MPH
gust
MPH
rain 1hr
in
rain 24hr
in
rain mn
in
humidity
%
barometer
mb
20260508005012 53 170 0.0 0.0 0.00 0.01 0.01 88 1010.0
20260508002808 54 166 2.0 0.0 0.00 0.01 0.01 87 1009.8
20260508002234 54 172 1.0 0.0 0.00 0.01 0.01 86 1009.6
20260508001700 54 177 1.0 0.0 0.00 0.01 0.01 86 1009.6
20260508001125 55 176 1.0 0.0 0.00 0.01 0.01 85 1009.6
20260508000551 55 172 1.0 0.0 0.00 0.01 0.01 85 1009.5
20260507235447 56 225 1.0 0.0 0.00 0.01 0.01 84 1009.1
20260507234343 56 176 1.0 0.0 0.00 0.01 0.01 84 1009.1
20260507233809 56 170 1.0 0.0 0.00 0.01 0.01 83 1008.9
20260507233235 57 170 1.0 0.0 0.00 0.01 0.01 83 1008.9
20260507232131 57 179 2.0 0.0 0.00 0.01 0.01 81 1008.8
20260507231557 57 171 1.0 0.0 0.00 0.01 0.01 80 1008.8
20260507231023 58 231 1.0 0.0 0.00 0.01 0.01 79 1008.7
20260507230449 58 168 2.0 0.0 0.00 0.01 0.01 78 1008.6
20260507225915 58 176 1.0 0.0 0.00 0.01 0.01 78 1008.5
20260507225341 58 238 1.0 0.0 0.00 0.01 0.01 76 1008.6
20260507224807 58 155 2.0 0.0 0.00 0.01 0.01 75 1008.4
20260507224233 58 158 2.0 0.0 0.00 0.01 0.01 74 1008.3
20260507223659 58 183 2.0 0.0 0.00 0.01 0.01 74 1008.2
20260507222555 59 161 1.0 0.0 0.00 0.01 0.01 75 1008.2
20260507221450 58 196 1.0 0.0 0.00 0.01 0.01 75 1008.3
20260507220916 58 165 2.0 0.0 0.00 0.01 0.01 74 1008.2
20260507220343 59 158 2.0 0.0 0.00 0.01 0.01 73 1008.2
20260507215808 59 197 2.0 0.0 0.00 0.01 0.01 74 1008.2
20260507215234 59 214 2.0 0.0 0.00 0.01 0.01 74 1008.2
20260507213600 59 176 2.0 0.0 0.00 0.01 0.01 73 1008.2
20260507212456 59 184 1.0 0.0 0.00 0.01 0.01 73 1008.2
20260507211352 59 156 2.0 0.0 0.00 0.01 0.01 72 1008.3
20260507205717 59 177 2.0 0.0 0.00 0.01 0.01 74 1008.3
20260507204043 59 154 2.0 0.0 0.00 0.01 0.01 73 1008.2
20260507202939 59 177 2.0 0.0 0.00 0.01 0.01 71 1008.4
20260507202405 59 177 2.0 0.0 0.00 0.01 0.01 73 1008.2
20260507201301 59 231 2.0 0.0 0.00 0.01 0.01 73 1008.2
20260507200727 59 152 1.0 0.0 0.00 0.01 0.01 72 1008.3
20260507195623 60 165 1.0 0.0 0.00 0.01 0.01 71 1008.2
20260507195049 60 206 3.0 0.0 0.00 0.01 0.01 69 1008.2
20260507194515 61 195 3.0 0.0 0.00 0.01 0.01 69 1008.1
20260507192841 61 184 1.0 0.0 0.00 0.01 0.01 65 1008.4
20260507191737 61 55 1.0 0.0 0.00 0.01 0.01 65 1008.5
20260507185003 60 212 2.0 0.0 0.00 0.01 0.01 64 1008.9
20260507183859 61 62 0.0 0.0 0.00 0.01 0.01 63 1008.9
20260507183325 61 58 0.0 0.0 0.00 0.01 0.01 62 1009.0
20260507182751 61 97 1.0 0.0 0.00 0.01 0.01 62 1009.2
20260507182216 61 59 0.0 0.0 0.00 0.01 0.01 64 1009.2
20260507181642 61 150 0.0 0.0 0.00 0.01 0.01 66 1009.5
20260507180538 61 192 0.0 0.0 0.00 0.01 0.01 64 1009.6
20260507180004 60 182 0.0 0.0 0.00 0.01 0.01 64 1009.7
20260507175430 60 93 1.0 0.0 0.00 0.01 0.01 60 1009.7
20260507174856 60 129 1.0 0.0 0.00 0.01 0.01 65 1009.8
20260507174322 59 245 0.0 0.0 0.00 0.01 0.01 65 1009.9
20260507173748 59 257 1.0 0.0 0.00 0.01 0.01 64 1009.8
20260507173214 59 59 1.0 0.0 0.00 0.01 0.01 64 1010.0
20260507171010 57 72 0.0 0.0 0.00 0.01 0.01 71 1010.5
20260507165336 56 126 0.0 0.0 0.00 0.01 0.01 71 1010.8
20260507164802 56 125 0.0 0.0 0.00 0.01 0.01 70 1010.9
20260507164228 56 125 2.0 0.0 0.00 0.01 0.01 68 1010.8
20260507163124 56 117 1.0 0.0 0.00 0.01 0.01 70 1010.9
20260507162550 56 257 0.0 0.0 0.00 0.01 0.01 70 1011.1
20260507161446 55 109 1.0 0.0 0.00 0.01 0.01 71 1011.2
20260507160912 55 19 1.0 0.0 0.00 0.01 0.01 70 1011.3
20260507160337 55 278 1.0 0.0 0.00 0.01 0.01 71 1011.3
20260507155804 55 94 1.0 0.0 0.00 0.01 0.01 70 1011.4
20260507154700 55 131 0.0 0.0 0.00 0.01 0.01 76 1011.3
20260507154125 55 100 0.0 0.0 0.00 0.01 0.01 80 1011.4
20260507153551 55 99 0.0 0.0 0.00 0.01 0.01 78 1011.3
20260507153017 54 99 0.0 0.0 0.00 0.07 0.01 78 1011.5
20260507152443 54 99 0.0 0.0 0.00 0.07 0.01 78 1011.6
20260507151909 54 139 1.0 0.0 0.00 0.07 0.01 78 1011.5
20260507151335 54 84 0.0 0.0 0.00 0.07 0.01 82 1011.7
20260507150801 54 84 0.0 0.0 0.00 0.07 0.01 80 1011.6
20260507145657 54 110 0.0 0.0 0.00 0.07 0.01 84 1011.8
20260507145123 53 110 0.0 0.0 0.00 0.07 0.01 84 1011.8
20260507144019 53 110 0.0 0.0 0.00 0.07 0.01 85 1012.0
20260507143445 53 110 0.0 0.0 0.00 0.07 0.01 86 1012.1
20260507142341 53 110 0.0 0.0 0.00 0.17 0.01 85 1012.0
20260507141807 52 110 0.0 0.0 0.00 0.17 0.01 86 1012.1
20260507141233 52 110 0.0 0.0 0.00 0.17 0.01 86 1012.2
20260507140659 52 110 0.0 0.0 0.00 0.17 0.01 86 1012.3
20260507140125 52 110 0.0 0.0 0.00 0.17 0.01 84 1012.2
20260507135550 52 110 0.0 0.0 0.00 0.17 0.01 83 1012.3
20260507133346 53 77 0.0 0.0 0.00 0.17 0.01 88 1012.5
20260507132812 53 77 0.0 0.0 0.00 0.28 0.01 86 1012.5
20260507132238 53 77 0.0 0.0 0.00 0.28 0.01 88 1012.4
20260507131134 53 77 0.0 0.0 0.00 0.28 0.01 95 1012.0
20260507130030 53 77 0.0 0.0 0.00 0.28 0.01 93 1012.3
20260507125456 53 77 0.0 0.0 0.00 0.28 0.01 93 1012.0
20260507124922 52 111 0.0 0.0 0.00 0.28 0.01 93 1012.0
20260507124348 52 111 0.0 0.0 0.00 0.28 0.01 93 1012.3
20260507123814 52 111 0.0 0.0 0.00 0.28 0.01 93 1012.2
20260507123239 52 111 0.0 0.0 0.00 0.30 0.01 93 1012.2
20260507122706 52 111 0.0 0.0 0.00 0.30 0.01 92 1012.4
20260507121601 52 111 0.0 0.0 0.00 0.30 0.01 91 1012.1
20260507121026 52 111 0.0 0.0 0.00 0.30 0.01 91 1012.1
20260507120452 52 111 0.0 0.0 0.00 0.30 0.01 91 1012.1
20260507115918 52 111 0.0 0.0 0.00 0.30 0.01 91 1012.0
20260507115344 52 112 0.0 0.0 0.00 0.30 0.01 91 1012.1
20260507113710 53 16 0.0 0.0 0.00 0.30 0.01 95 1011.8
20260507113136 52 16 0.0 0.0 0.00 0.30 0.01 95 1011.5
20260507112032 52 16 0.0 0.0 0.00 0.30 0.01 95 1011.7
20260507111459 52 16 0.0 0.0 0.00 0.30 0.01 96 1011.7
20260507110924 52 16 0.0 0.0 0.00 0.30 0.01 96 1011.5
20260507105820 52 16 0.0 0.0 0.00 0.30 0.01 98 1011.6
20260507104138 52 16 0.0 0.0 0.00 0.30 0.01 98 1011.5
20260507103604 52 16 0.0 0.0 0.00 0.30 0.01 97 1011.4
20260507103030 53 16 0.0 0.0 0.00 0.30 0.01 98 1011.4
20260507101926 53 16 0.0 0.0 0.00 0.30 0.01 98 1011.4
20260507100821 53 16 0.0 0.0 0.00 0.30 0.01 98 1011.2
20260507095717 53 16 0.0 0.0 0.00 0.30 0.01 99 1011.2
20260507095143 53 16 0.0 0.0 0.00 0.30 0.01 10 1011.2
20260507094609 53 16 0.0 0.0 0.00 0.30 0.01 10 1011.1
20260507092934 53 16 0.0 0.0 0.00 0.30 0.01 10 1011.1
20260507092400 53 16 0.0 0.0 0.00 0.30 0.01 10 1011.1
20260507091256 53 16 0.0 0.0 0.00 0.30 0.01 10 1010.8
20260507090152 53 16 0.0 0.0 0.00 0.30 0.01 10 1011.0
20260507085048 53 16 0.0 0.0 0.00 0.30 0.01 10 1011.0
20260507084514 53 16 0.0 0.0 0.00 0.30 0.01 10 1010.9
20260507083940 53 16 0.0 0.0 0.00 0.30 0.01 10 1010.9
20260507082836 53 16 0.0 0.0 0.00 0.30 0.01 10 1011.0
20260507082305 53 16 0.0 0.0 0.00 0.30 0.01 10 1010.9
20260507081157 53 16 0.0 0.0 0.00 0.30 0.01 10 1010.7
20260507080623 53 16 0.0 0.0 0.00 0.30 0.01 10 1010.4
20260507080050 53 16 0.0 0.0 0.00 0.30 0.01 10 1010.1
20260507075515 53 14 0.0 0.0 0.00 0.30 0.01 10 1010.1
20260507074942 53 14 0.0 0.0 0.00 0.30 0.01 10 1010.0
20260507074407 53 14 0.0 0.0 0.01 0.30 0.01 10 1010.1
20260507070005 54 14 0.0 0.0 0.01 0.30 0.01 10 1010.0
20260507064329 54 14 0.0 0.0 0.00 0.29 0.00 10 1010.0
20260507063754 54 14 0.0 0.0 0.00 0.29 0.00 10 1010.1
20260507063220 54 14 0.0 0.0 0.00 0.29 0.00 10 1010.0
20260507062647 54 14 0.0 0.0 0.00 0.29 0.00 10 1010.1
20260507062112 54 15 0.0 0.0 0.00 0.29 0.00 10 1010.3
20260507060438 55 14 0.0 0.0 0.00 0.29 0.00 10 1010.0
20260507055904 55 14 0.0 0.0 0.00 0.29 0.00 10 1009.9
20260507055330 55 14 0.0 0.0 0.00 0.29 0.00 10 1010.0
20260507053126 56 14 1.0 0.0 0.00 0.29 0.00 10 1010.3
20260507052022 56 248 0.0 0.0 0.00 0.29 0.00 10 1010.2
20260507051448 56 248 0.0 0.0 0.00 0.29 0.00 10 1009.9
20260507050914 56 247 0.0 0.0 0.00 0.29 0.00 10 1009.8
20260507050340 57 67 0.0 0.0 0.00 0.29 0.00 10 1009.9
20260507045806 57 49 0.0 0.0 0.00 0.29 0.00 10 1010.3
20260507044702 58 49 0.0 0.0 0.00 0.29 0.00 10 1010.1
20260507041350 59 100 0.0 0.0 0.00 0.29 0.29 97 1010.2
20260507040816 59 100 0.0 0.0 0.00 0.29 0.29 97 1010.0
20260507040242 59 100 0.0 0.0 0.00 0.29 0.29 96 1010.1
20260507035707 59 100 0.0 0.0 0.00 0.29 0.29 95 1009.8
20260507035133 60 100 0.0 0.0 0.00 0.29 0.29 95 1009.9
20260507034559 60 100 0.0 0.0 0.00 0.29 0.29 96 1009.8
20260507030713 62 302 0.0 0.0 0.00 0.29 0.29 90 1009.8
20260507030139 62 302 0.0 0.0 0.00 0.29 0.29 90 1009.5
20260507025605 62 339 0.0 0.0 0.00 0.29 0.29 91 1008.9
20260507025031 62 339 0.0 0.0 0.00 0.29 0.29 91 1008.9
20260507023927 63 320 1.0 0.0 0.00 0.29 0.29 92 1009.5
20260507023353 63 15 1.0 0.0 0.00 0.29 0.29 94 1009.4
20260507022819 63 15 1.0 0.0 0.00 0.29 0.29 94 1009.2
20260507022245 64 15 1.0 0.0 0.00 0.29 0.29 95 1009.1
20260507021711 64 51 0.0 0.0 0.00 0.29 0.29 96 1008.8
20260507020607 64 80 0.0 0.0 0.00 0.29 0.29 97 1008.9
20260507020033 65 79 0.0 0.0 0.00 0.29 0.29 97 1008.8
20260507014929 65 71 0.0 0.0 0.00 0.29 0.29 97 1008.6
20260507014355 65 71 0.0 0.0 0.00 0.29 0.29 97 1008.7
20260507013821 65 71 0.0 0.0 0.00 0.29 0.29 97 1008.3
20260507013247 65 71 0.0 0.0 0.00 0.29 0.29 97 1008.7
20260507012713 65 72 0.0 0.0 0.00 0.29 0.29 99 1008.9
20260507011608 65 71 0.0 0.0 0.00 0.29 0.29 10 1009.1